Location: Makanda
(37.6176°N, 89.2090°W)
Time: 14:22:08
(UTC+00:00)

OAO 3 Rocket - Pass Details

Date: 23 September 2019
Orbit: 629 x 683 km, 35.0° (Epoch: 19 October)

Event Time Altitude Azimuth Distance (km) Brightness Sun altitude
Exits shadow 10:17:43 33° 226° (SW) 1,065 3.8 -18.0°
Maximum altitude 10:19:29 52° 168° (SSE) 779 3.5 -17.6°
Drops below altitude 10° 10:23:59 10° 93° (E) 1,997 6.9 -16.8°
Sets 10:26:22 0° 88° (E) 2,906 8.2 -16.3°
